Find Starlink 11739

NORAD ID: 64374 Int'l Des: 2025-127 Owner: SPXS Country: US Constellation: starlink operational
又名: STARLINK-11739 [DTC] celestrak
LEOCIRCULAR

当前视图

正在加载3D地球...

About Starlink 11739

Starlink 11739 (NORAD 64374) is a starlink constellation satellite (v2 mini d2c) launched Jun 13, 2025 by SPXS of US. It operates in LEO, CIRCULAR orbit with a mass of 960.00 kg.

即将过境

Passes for default location (London). Set your location on the main map for personalized predictions.

高度历史

Loading altitude history...

两行轨道根数

1 64374U 25127E 26236.46629022 .00160753 00000-0 12307-2 0 9998
2 64374 43.0007 152.8439 0000684 304.7435 55.3369 15.70869476 69892
Epoch: Aug 24, 2026 • Age: 25 hours

当前状态

高度 358.8 km
远地点 / 近地点 N/A
速度 7.70 km/s
星下点 42.50°N, 94.76°E
发射日期 Jun 13, 2025
运行时间 1.1 years
类型 internet

技术详情

分类 Payload
质量 960.00 kg
干质量 910.00 kg
总质量 960.00 kg
长度 0.30 m
直径 4.10 m
跨度 29.00 m
形状 Box + pan
制造商 SPXS
平台类型 Starlink V2MD
阶段状态 In Orbit
所有者/国家 SPXS/US

Most Searched